This is the latest recevied weather packets stored in our database for station/object HS6PNA-1. If no packets are shown the sender has not sent any weather packets the latest 10 day(s).
| Time | Temp. | Humidity | Pressure | Rain* | Wind** | Luminosity | Snow |
|---|---|---|---|---|---|---|---|
| 1777878441 | 32.22° C | 69% | 1003 hPa | - | - | 66 W/m² | - |
| 1777877517 | 32.22° C | 68% | 1004 hPa | - | - | 30 W/m² | - |
| 1777876592 | 33.33° C | 57% | 1004 hPa | - | - | 16 W/m² | - |
| 1777875667 | 36.11° C | 51% | 1003 hPa | - | - | 31 W/m² | - |
| 1777874742 | 38.89° C | 41% | 1004 hPa | - | - | 244 W/m² | - |
| 1777873818 | 37.78° C | 43% | 1004 hPa | - | - | 107 W/m² | - |
| 1777872893 | 38.33° C | 43% | 1004 hPa | - | - | 64 W/m² | - |
| 1777871969 | 38.33° C | 44% | 1005 hPa | - | - | 271 W/m² | - |
| 1777871044 | 37.78° C | 43% | 1005 hPa | - | - | 117 W/m² | - |
| 1777870120 | 38.33° C | 43% | 1005 hPa | - | - | 349 W/m² | - |
| 1777869195 | 36.67° C | 47% | 1005 hPa | - | - | 71 W/m² | - |
| 1777868271 | 37.22° C | 47% | 1005 hPa | - | - | 79 W/m² | - |
| 1777867346 | 37.22° C | 44% | 1005 hPa | - | - | 114 W/m² | - |
| 1777866422 | 37.78° C | 44% | 1006 hPa | - | - | 119 W/m² | - |
| 1777865497 | 37.22° C | 45% | 1006 hPa | - | - | 295 W/m² | - |
| 1777864573 | 37.22° C | 46% | 1006 hPa | - | - | 304 W/m² | - |
| 1777863649 | 36.67° C | 48% | 1006 hPa | - | - | 210 W/m² | - |
| 1777862724 | 36.11° C | 50% | 1006 hPa | - | - | 200 W/m² | - |
| 1777861800 | 36.11° C | 53% | 1006 hPa | - | - | 204 W/m² | - |
| 1777860875 | 35° C | 55% | 1006 hPa | - | - | 147 W/m² | - |
| 1777859951 | 34.44° C | 56% | 1006 hPa | - | - | 146 W/m² | - |
| 1777859026 | 34.44° C | 59% | 1006 hPa | - | - | 112 W/m² | - |
| 1777858101 | 33.89° C | 60% | 1006 hPa | - | - | 58 W/m² | - |
| 1777857177 | 33.33° C | 63% | 1006 hPa | - | - | 50 W/m² | - |
| 1777856253 | 32.78° C | 65% | 1006 hPa | - | - | 45 W/m² | - |
* Rain since midnight (hover to see other rain measurements)
** Current wind speed in m/s (hover to see current wind gust speed)